Regional Weather Roundup
Issued by NWS

Home | Current Version | Previous Version | Text Only | Print | Product List | Glossary Off
Versions: 1 2 3 4 5 6 7 8 9 10 11 12 13 14 15 16 17 18 19 20 21 22 23 24 25 26 27 28 29 30 31 32 33 34 35 36 37 38 39 40 41 42 43 44 45 46 47 48 49 50

000
ASUS43 KDMX 120207
RWRIA

WEATHER ROUNDUP FOR IOWA
NATIONAL WEATHER SERVICE DES MOINES IA
900 PM CDT FRI JUL 11 2014

NOTE: "FAIR" INDICATES FEW OR NO CLOUDS BELOW 12,000 FEET WITH NO
SIGNIFICANT WEATHER AND/OR OBSTRUCTIONS TO VISIBILITY.

* - THESE STATIONS ARE NOT NWS STATIONS...THUS NOT UNDER NWS
QUALITY CONTROL.  THEY ALSO DO NOT REPORT WEATHER SUCH
AS PRECIPITATION OR FOG.

IAZ001>003-012>014-020>022-031>034-043>046-120300-
   NORTHWEST IOWA

CITY           SKY/WX    TMP DP  RH WIND       PRES   REMARKS
CARROLL *      MOCLDY    72  70  94 SE3       30.01F FOG
CHEROKEE *     CLOUDY    72  72 100 CALM      30.01R FOG
DENISON *      CLEAR     73  72  94 SE5       29.99R
LE MARS *      MOCLDY    73  72  94 S5        30.01R FOG
ORANGE CITY *  CLEAR     75  70  83 S3        30.03R
SHELDON *      CLEAR     73  72  94 CALM      30.01R
SIOUX CITY     CLOUDY    74  72  93 SE5       30.00R
SPENCER        MOCLDY    75  70  84 CALM      30.01R
STORM LAKE *   PTCLDY    72  72 100 S7        30.02S FOG
$$

IAZ055>058-069>071-079>083-090>094-120300-
   SOUTHWEST IOWA

CITY           SKY/WX    TMP DP  RH WIND       PRES   REMARKS
ATLANTIC *     CLEAR     77  73  88 NE3       30.00S
AUDUBON *      CLEAR     73  72  94 CALM      30.03S FOG
CLARINDA *     CLEAR     79  75  89 CALM      30.00S HX  82
COUNCIL BLFS * CLEAR     79  77  94 E8        29.98R HX  83
CRESTON *      CLEAR     75  73  94 E6        30.02S
HARLAN  *      CLEAR     75  73  94 NE5       30.04R
LAMONI         MOCLDY    77  74  90 NE3       30.01S
RED OAK *      PTCLDY    79  75  89 E6        29.99R HX  82
SHENANDOAH *   CLEAR     81  77  89 E7        29.98R HX  88
$$

IAZ047>049-059>061-072>074-084-120300-
   CENTRAL IOWA

CITY           SKY/WX    TMP DP  RH WIND       PRES   REMARKS
AMES           CLOUDY    72  70  93 S3        30.02S
ANKENY *       CLEAR     73  72  94 CALM      30.01S
CHARITON *     CLOUDY    75  73  94 NE5       30.02S
DES MOINES     CLOUDY    77  71  82 E5        30.00F
GRINNELL*      MOCLDY    73  70  88 E6        30.03F
KNOXVILLE *    CLOUDY    75  72  88 E5        30.01S
MARSHALLTOWN   LGT RAIN  73  70  90 E5        30.02F
PELLA *        CLOUDY    75  72  88 E3        30.03S
PERRY *          N/A     73  70  88 E3        30.02R
$$

IAZ004>006-015-016-023>025-035-036-120300-
   NORTH CENTRAL IOWA

CITY           SKY/WX    TMP DP  RH WIND       PRES   REMARKS
ALGONA *       CLEAR     73  70  88 S7        30.03R
CLARION *      CLEAR     72  68  88 S5        30.03R
ESTHERVILLE    PTCLDY    75  69  81 S6        30.00S
FORT DODGE *   CLOUDY    72  68  88 SE3       30.03S
MASON CITY     PTCLDY    70  67  90 S7        30.04S
FOREST CITY *  MOCLDY    70  68  94 SE5       30.03R
IOWA FALLS *   CLOUDY    73  68  83 CALM      30.05R
$$

IAZ007>011-017>019-026>030-037>042-050>054-066-120300-
   NORTHEAST IOWA

CITY           SKY/WX    TMP DP  RH WIND       PRES   REMARKS
CEDAR RAPIDS   CLOUDY    73  68  84 SE5       30.04R
CHARLES CITY * CLOUDY    73  68  83 S5        30.04S
CLINTON *      MOCLDY    72  66  83 E7        30.10S
DECORAH *        N/A    N/A N/A N/A MISG        N/A
DUBUQUE        MOCLDY    71  67  87 S7        30.08S
MONTICELLO *   CLOUDY    75  70  83 SE6       30.06R
OELWEIN *      CLOUDY    73  73 100 S6        30.06S
WATERLOO       CLOUDY    75  68  78 SE7       30.02F
$$

IAZ064-065-067-068-078-120300-
   EAST CENTRAL IOWA

CITY           SKY/WX    TMP DP  RH WIND       PRES   REMARKS
DAVENPORT      PTCLDY    74  66  76 SE7       30.07S
IOWA CITY      CLOUDY    75  69  81 SE6       30.06R
MT. PLEASANT * MOCLDY    75  70  83 NE3       30.04R
MUSCATINE *    MOCLDY    75  68  78 E5        30.05R
QUAD CITIES    MOCLDY    73  68  84 E6        30.05F
$$

IAZ062-063-075>077-085>089-095>099-120300-
   SOUTHEAST IOWA

CITY           SKY/WX    TMP DP  RH WIND       PRES   REMARKS
BURLINGTON     MOCLDY    77  70  79 SE7       30.03R
FAIRFIELD *    CLOUDY    73  72  94 CALM      30.03S
FORT MADISON * MOCLDY    79  72  78 CALM      30.04R HX  82
KEOKUK *       CLEAR     79  72  78 SE5       30.01S HX  82
OSKALOOSA *      N/A     73  72  94 E5        30.03S
CENTERVILLE *  CLEAR     75  75 100 CALM      30.04R
OTTUMWA        CLOUDY    74  71  91 E5        30.02S
WASHINGTON *   CLOUDY    75  72  88 E6        30.04S
$$

ABBREVIATIONS USED IN REMARKS
   TC - TEMPERATURES IN CELSIUS
  WCI - WIND CHILL INDEX
   HX - HEAT INDEX
  VSB - VISIBILITY
$$



USA.gov is the U.S. government's official web portal to all federal, state and local government web resources and services.